This is the latest recevied weather packets stored in our database for station/object W8LMG. If no packets are shown the sender has not sent any weather packets the latest 10 day(s).
| Time | Temp. | Humidity | Pressure | Rain* | Wind** | Luminosity | Snow |
|---|---|---|---|---|---|---|---|
| 1777797114 | 2.22° C | 68% | 1016 hPa | 0 mm | - | 0 W/m² | - |
| 1777796810 | 2.22° C | 67% | 1016.1 hPa | 0 mm | - | 0 W/m² | - |
| 1777796508 | 2.22° C | 67% | 1016.2 hPa | 0 mm | - | 0 W/m² | - |
| 1777796208 | 2.22° C | 69% | 1016 hPa | 0 mm | - | 0 W/m² | - |
| 1777795904 | 2.22° C | 66% | 1016.1 hPa | 0 mm | - | 0 W/m² | - |
| 1777795600 | 2.78° C | 67% | 1016.1 hPa | 0 mm | - | 0 W/m² | - |
| 1777795298 | 2.78° C | 67% | 1016.1 hPa | 0 mm | - | 0 W/m² | - |
| 1777794994 | 2.22° C | 69% | 1016 hPa | 0 mm | - | 0 W/m² | - |
| 1777794691 | 2.22° C | 70% | 1016 hPa | 0 mm | - | 0 W/m² | - |
| 1777794386 | 2.22° C | 70% | 1016.2 hPa | 0 mm | - | 0 W/m² | - |
| 1777794082 | 2.22° C | 73% | 1016.1 hPa | 0 mm | - | 0 W/m² | - |
| 1777793779 | 2.78° C | 71% | 1016.1 hPa | 0 mm | - | 0 W/m² | - |
| 1777793478 | 2.78° C | 71% | 1016 hPa | 0 mm | - | 0 W/m² | - |
| 1777793175 | 2.22° C | 71% | 1016.1 hPa | 0 mm | - | 0 W/m² | - |
| 1777792872 | 2.22° C | 74% | 1015.9 hPa | 0 mm | - | 0 W/m² | - |
| 1777792568 | 1.67° C | 75% | 1015.9 hPa | 0 mm | - | 0 W/m² | - |
| 1777792265 | 1.11° C | 82% | 1015.6 hPa | 0 mm | - | 0 W/m² | - |
| 1777791962 | 1.11° C | 83% | 1015.7 hPa | 0 mm | - | 0 W/m² | - |
| 1777791660 | 1.11° C | 83% | 1015.7 hPa | 0 mm | - | 0 W/m² | - |
| 1777791357 | 1.67° C | 81% | 1015.7 hPa | 0 mm | - | 0 W/m² | - |
| 1777791054 | 1.67° C | 80% | 1015.5 hPa | 0 mm | - | 0 W/m² | - |
| 1777790752 | 1.67° C | 83% | 1015.7 hPa | 0 mm | - | 0 W/m² | - |
| 1777790448 | 1.67° C | 84% | 1015.6 hPa | 0 mm | - | 0 W/m² | - |
| 1777790146 | 1.67° C | 84% | 1015.6 hPa | 0 mm | - | 0 W/m² | - |
| 1777789844 | 2.22° C | 84% | 1015.6 hPa | 0 mm | - | 0 W/m² | - |
* Rain latest hour (hover to see other rain measurements)
** Current wind speed in m/s (hover to see current wind gust speed)